Weather History for Cincinnati, OH

Change the Weather History Date:

Sunday, November 6, 2011

  Actual Average Record
Temperature  
Mean Temperature 47 °F -  
Max Temperature 62 °F 55 °F 79 °F (1975)
Min Temperature 32 °F 36 °F 24 °F (2012)
Degree Days  
Heating Degree Days 18    
Moisture  
Dew Point 35 °F    
Average Humidity 75    
Maximum Humidity 96    
Minimum Humidity 39    
Precipitation  
Precipitation 0.00 in - - ()
Sea Level Pressure  
Sea Level Pressure 30.29 in    
Wind  
Wind Speed 2 mph (South)    
Max Wind Speed 20 mph    
Max Gust Speed 23 mph    
Visibility 8 miles    
Events      
Averages and records for this station are not official NWS values.
T = Trace of Precipitation, MM = Missing Value Source: NWS Daily Summary

Daily Weather History Graph

Daily Weather History Graph

Search for Another Location

Airport:

Trip Planner

Search our weather history database for the weather conditions in past years. The results will help you decide how hot, cold, wet, or windy it might be!

Date:

Astronomy

Nov. 06, 2011 Rise Set
Actual Time 7:10 AM EST 5:31 PM EST
Civil Twilight 6:42 AM EST 5:59 PM EST
Nautical Twilight 6:10 AM EST 6:31 PM EST
Astronomical Twilight 5:39 AM EST 7:02 PM EST
Moon 3:14 PM EST (11/6) 3:17 AM EST (11/6)
Length of Visible Light 11h 17m
Length of Day
10h 21m
Waxing Gibbous, 85% of the Moon is Illuminated
Nov 6
Waxing Gibbous
Nov 10
Full
Nov 18
Last Quarter
Nov 25
New
Dec 2
First Quarter

Hourly Weather History & Observations

Time (EST) Temp. Dew Point Humidity Pressure Visibility Wind Dir Wind Speed Gust Speed Precip Events Conditions
12:53 AM 35.1 °F 33.1 °F 92% 30.22 in 7.0 mi Calm Calm - N/A   Clear
1:53 AM 34.0 °F 32.0 °F 92% 30.24 in 4.0 mi Calm Calm - N/A   Clear
1:58 AM 33.8 °F 32.0 °F 93% 30.23 in 1.5 mi Calm Calm - N/A   Clear
1:11 AM 33.8 °F 32.0 °F 93% 30.24 in 3.0 mi Calm Calm - N/A   Clear
1:53 AM 33.1 °F 32.0 °F 96% 30.25 in 3.0 mi Calm Calm - N/A   Clear
2:37 AM 33.8 °F 32.0 °F 93% 30.25 in 2.0 mi Calm Calm - N/A   Clear
2:46 AM 33.8 °F 32.0 °F 93% 30.25 in 4.0 mi Calm Calm - N/A   Clear
2:53 AM 33.1 °F 30.9 °F 92% 30.26 in 4.0 mi Calm Calm - N/A   Clear
3:53 AM 33.1 °F 32.0 °F 96% 30.28 in 4.0 mi Calm Calm - N/A   Clear
4:53 AM 32.0 °F 30.0 °F 92% 30.30 in 5.0 mi Calm Calm - N/A   Clear
5:53 AM 32.0 °F 30.0 °F 92% 30.34 in 5.0 mi Calm Calm - N/A   Clear
6:53 AM 32.0 °F 30.0 °F 92% 30.35 in 10.0 mi Calm Calm - N/A   Clear
7:53 AM 32.0 °F 30.0 °F 92% 30.37 in 10.0 mi Calm Calm - N/A   Clear
8:53 AM 39.9 °F 37.0 °F 89% 30.38 in 10.0 mi Calm Calm - N/A   Clear
9:53 AM 51.1 °F 39.0 °F 63% 30.37 in 10.0 mi South 9.2 mph - N/A   Clear
10:53 AM 55.9 °F 36.0 °F 47% 30.36 in 10.0 mi SSW 19.6 mph 23.0 mph N/A   Clear
11:53 AM 59.0 °F 37.0 °F 44% 30.34 in 10.0 mi South 12.7 mph 19.6 mph N/A   Clear
12:53 PM 61.0 °F 36.0 °F 39% 30.30 in 10.0 mi SSW 11.5 mph 19.6 mph N/A   Clear
1:53 PM 61.0 °F 36.0 °F 39% 30.28 in 10.0 mi South 12.7 mph - N/A   Clear
2:53 PM 62.1 °F 37.0 °F 39% 30.27 in 10.0 mi South 11.5 mph - N/A   Clear
3:53 PM 62.1 °F 37.9 °F 41% 30.26 in 10.0 mi South 10.4 mph - N/A   Clear
4:53 PM 60.1 °F 36.0 °F 41% 30.25 in 10.0 mi South 8.1 mph 17.3 mph N/A   Clear
5:53 PM 52.0 °F 37.0 °F 57% 30.27 in 10.0 mi South 4.6 mph - N/A   Clear
6:53 PM 51.1 °F 37.0 °F 59% 30.29 in 10.0 mi Calm Calm - N/A   Clear
7:53 PM 45.0 °F 37.9 °F 76% 30.29 in 10.0 mi Calm Calm - N/A   Clear
8:53 PM 46.9 °F 39.0 °F 74% 30.29 in 10.0 mi West 5.8 mph - N/A   Clear
9:53 PM 39.2 °F 37.4 °F 93% 30.29 in 10.0 mi Calm Calm - N/A   Clear
10:53 PM 39.9 °F 37.9 °F 93% 30.30 in 10.0 mi Calm Calm - N/A   Clear